Regional Weather Roundup
Issued by NWS

Home | Current Version | Previous Version | Text Only | Print | Product List | Glossary On
Versions: 1 2 3 4 5 6 7 8 9 10 11 12 13 14 15 16 17 18 19 20 21 22 23 24 25 26 27 28 29 30 31 32 33 34 35 36 37 38 39 40 41 42 43 44 45 46 47 48 49 50
000
ASUS43 KFSD 070102
RWRSD

WEATHER ROUNDUP FOR SOUTH DAKOTA
NATIONAL WEATHER SERVICE SIOUX FALLS SD
800 PM CDT WED MAY 06 2015

NOTE: "FAIR" INDICATES FEW OR NO CLOUDS BELOW 12,000 FEET WITH NO
SIGNIFICANT WEATHER AND/OR OBSTRUCTIONS TO VISIBILITY.


SDZ001>005-009-010-012>017-070200-
NORTHWEST AND NORTH CENTRAL SOUTH DAKOTA

CITY           SKY/WX    TMP DP  RH WIND       PRES   REMARKS
BUFFALO          N/A     52  49  89 NW30G38   29.62R
FAITH            N/A     58  55  90 S5        29.60S
MOBRIDGE       LGT RAIN  65  59  81 S12       29.57R
$$

SDZ012>016-024>037-041>051-057-063-072>074-070200-
SOUTHWEST AND SOUTH CENTRAL SOUTH DAKOTA

CITY           SKY/WX    TMP DP  RH WIND       PRES   REMARKS
RAPID CTY ARPT LGT RAIN  52  47  83 NW32G41   29.64R
PIERRE         CLOUDY    66  54  65 W9        29.58S
CUSTER         LGT RAIN  49  44  83 N10       29.70R
PHILIP         RAIN      59  58  96 SE3       29.59S
PINE RIDGE     LGT RAIN  57  54  89 NW5       29.61S FOG
WINNER         TSTM      65  59  81 SE9       29.60S
$$

SDZ004>011-016>023-039-040-070200-
NORTHEAST SOUTH DAKOTA

CITY           SKY/WX    TMP DP  RH WIND       PRES   REMARKS
ABERDEEN       MOCLDY    66  62  87 S6        29.61S
WATERTOWN      CLOUDY    65  60  84 S22G30    29.69R
BROOKINGS      MOCLDY    64  61  88 S17       29.72S
SISSETON         N/A     68  62  81 S18       29.65S
$$

SDZ017-020-022-023-036>040-048>070-070200-
SOUTHEAST SOUTH DAKOTA

CITY           SKY/WX    TMP DP  RH WIND       PRES   REMARKS
SIOUX FALLS    CLOUDY    68  60  75 SE18G29   29.70F
HURON          PTCLDY    67  60  78 S15G25    29.62S
MITCHELL       LGT RAIN  66  63  90 SE12      29.65R
YANKTON        CLOUDY    66  61  82 SE21G33   29.65F
$$

ABBREVIATIONS USED IN REMARKS
   TC - TEMPERATURE IN CELSIUS
  WCI - WIND CHILL INDEX
   HX - HEAT INDEX
  VSB - VISIBILITY




USA.gov is the U.S. government's official web portal to all federal, state and local government web resources and services.